Regional Weather Roundup
Issued by NWS

Home | Current Version | Previous Version | Graphics & Text | Print | Product List | Glossary On
Versions: 1 2 3 4 5 6 7 8 9 10 11 12 13 14 15 16 17 18 19 20 21 22 23 24 25 26 27 28 29 30 31 32 33 34 35 36 37 38 39 40 41 42 43 44 45 46 47 48 49 50
000
ASUS45 KPSR 030700
RWRAZ

ARIZONA HOURLY REGIONAL WEATHER ROUNDUP
NATIONAL WEATHER SERVICE PHOENIX AZ
1200 AM MST WED JUN 03 2015

NOTE: FAIR INDICATES FEW OR NO CLOUDS BELOW 12,000 FEET WITH NO
SIGNIFICANT WEATHER AND/OR OBSTRUCTIONS TO VISIBILITY.

AZZ001>003-036-030800-
NORTHWEST ARIZONA

CITY           SKY/WX    TMP DP  RH WIND       PRES   REMARKS
KINGMAN        CLEAR     65  20  17 S7        29.90F
$$

AZZ004>008-015-016-018-030800-
NORTH CENTRAL ARIZONA

CITY           SKY/WX    TMP DP  RH WIND       PRES   REMARKS
GRAND CANYON   CLEAR     38  18  44 CALM      30.13S
WILLIAMS       CLEAR     54  16  22 S9        30.20S
PRESCOTT       CLEAR     65  16  15 SW10      30.04S
FLAGSTAFF      NOT AVBL
PAYSON         CLEAR     61  21  21 SW3       30.08S
PAGE           CLEAR     74  19  12 S5        29.92R
$$

AZZ009>014-017-030800-
NORTHEAST ARIZONA

CITY           SKY/WX    TMP DP  RH WIND       PRES   REMARKS
WINSLOW        NOT AVBL
SAINT JOHNS    CLEAR     61  22  22 S6        30.09S
WINDOW ROCK    CLEAR     56  20  24 CALM      30.14F
$$

AZZ023-030800-
GREATER PHOENIX AREA

CITY           SKY/WX    TMP DP  RH WIND       PRES   REMARKS
PHOENIX        CLEAR     91  16   6 W9        29.78S
LUKE AFB       CLEAR     77  29  17 NW10      29.77F
DEER VALLEY    CLEAR     81  17   9 CALM      29.81S
SCOTTSDALE     CLEAR     85  15   7 W5        29.83S
MESA-GATEWAY   CLEAR     73  37  27 E5        29.84R
$$

AZZ027-028-030800-
SOUTHWEST MARICOPA COUNTY AND PINAL COUNTY

CITY           SKY/WX    TMP DP  RH WIND       PRES   REMARKS
CASA GRANDE    CLEAR     79  25  13 CALM      29.82S
GILA BEND      FAIR      81  18   9 SW12      29.78S
$$

AZZ503-504-507>509-030800-
SOUTHEAST ARIZONA

CITY           SKY/WX    TMP DP  RH WIND       PRES   REMARKS
TUCSON         CLEAR     81  21  11 S3        29.95S
DAVIS-MONTHAN  CLEAR     77  21  12 SW3       29.94S
NOGALES        CLEAR     69  24  18 SE5       30.05S
SIERRA VISTA   CLEAR     73  20  13 W13       30.08S
SAFFORD        CLEAR     81  29  15 NW12      29.91S
$$

AZZ020-021-025-026-031-030800-
SOUTHWEST ARIZONA

CITY           SKY/WX    TMP DP  RH WIND       PRES   REMARKS
YUMA           NOT AVBL
$$

CAZ031-033-041-043-047-048-061-030800-
SOUTHERN CALIFORNIA

CITY           SKY/WX    TMP DP  RH WIND       PRES   REMARKS
DOWNTOWN L.A.  CLEAR     62  57  83 CALM      29.94F
L.A. AIRPORT   PTCLDY    61  58  90 S3        29.95F
SAN DIEGO      CLOUDY    63  54  72 NW5       29.99S
BURBANK        CLEAR     64  56  75 E7        29.94F
ONTARIO        CLEAR     61  55  81 SW6       29.95S
RIVERSIDE      CLEAR     61  56  83 W3        29.95F
PALM SPRINGS   CLEAR     82  42  24 VRB5      29.77S
EL CENTRO NAS  CLEAR     80  26  13 W32       29.79S
IMPERIAL       LGT RAIN  79  29  16 W25G32    29.75F
BLYTHE         CLEAR     79  40  24 S9        29.74S
$$

NVZ020-UTZ003-030800-
SOUTHERN NEVADA-UTAH

CITY           SKY/WX    TMP DP  RH WIND       PRES   REMARKS
LAS VEGAS      NOT AVBL
SALT LAKE CITY PTCLDY    64  46  52 S5        29.90S
$$

NMZ009-TXZ055-030800-
NEW MEXICO-WEST TEXAS

CITY           SKY/WX    TMP DP  RH WIND       PRES   REMARKS
ALBUQUERQUE    CLEAR     71  26  18 N5        30.02S
EL PASO        PTCLDY    87  21   9 W13       29.93F
$$


........................KEY........................
SKY/WX - SKY CONDITION/WEATHER
TMP    - TEMPERATURE IN FAHRENHEIT
DP     - DEW POINT IN FAHRENHEIT
RH     - RELATIVE HUMIDITY IN PERCENT
WIND   - DIRECTION AND SPEED IN MILES PER HOUR (MPH)
VRB    - VARIABLE WIND DIRECTION
PRES   - MEAN SEA LEVEL PRESSURE IN INCHES OF MERCURY
         F - FALLING PRESSURE   R - RISING PRESSURE
         S - STEADY PRESSURE
VSB    - VISIBILITY IN MILES
HX     - HEAT INDEX IN FAHRENHEIT
WCI    - WIND CHILL INDEX IN FAHRENHEIT
TC     - TEMPERATURE IN CELSIUS WHICH IS ALSO KNOWN AS
         TEMPERATURE IN CENTIGRADE
AFB    - AIR FORCE BASE
         LUKE AFB IS LUKE AIR FORCE BASE
         DAVIS-MONTHAN IS DAVIS-MONTHAN AIR FORCE BASE
NAS    - NAVAL AIR STATION
         EL CENTRO NAS IS EL CENTRO NAVAL AIR STATION
N/A    - NOT AVAILABLE




USA.gov is the U.S. government's official web portal to all federal, state and local government web resources and services.